Weather Roundup
Issued by NWS Springfield, MO

Home | Current Version | Previous Version | Text Only | Print | Product List | Glossary On
Versions: 1 2 3 4 5 6 7 8 9 10 11 12 13 14 15 16 17 18 19 20 21 22 23 24 25 26 27 28 29 30 31 32 33 34 35 36 37 38 39 40 41 42 43 44 45 46 47 48 49 50
000
NZUS99 KSGF 161459
HRRSGF

HOURLY WEATHER
NATIONAL WEATHER SERVICE SPRINGFIELD MO
1000 AM CDT WED APR 16 2014

......SGF CWA......

CITY           SKY/WX    TMP DP  RH WIND       PRES   REMARKS
SPRINGFIELD    MOSUNNY   48  32  53 SE24G35   30.10S
JOPLIN         PTSUNNY   52  30  43 S22G29    30.06R
WEST PLAINS    SUNNY     43  24  47 S18G26    30.23R
ROLLA          MOSUNNY   46  27  47 S18G28    30.16S
OSAGE BEACH    MOSUNNY   48  28  46 S12G22    30.15S
BRANSON        MOSUNNY   46  30  53 S14G20    30.16S

......SURROUNDING SGF CWA......

CITY           SKY/WX    TMP DP  RH WIND       PRES   REMARKS
CHANUTE        MOSUNNY   53  31  42 S28G38    29.98F
PARSONS        MOSUNNY   53  30  41 S20G33    30.01S
COFFEYVILLE    PTSUNNY   53  31  42 S24G37    30.02R
EMPORIA        MOSUNNY   55  27  34 S29G40    29.87S
HARRISON AR    SUNNY     49  29  46 S16G28    30.16S
NEAR YELLVILLE SUNNY     48  27  43 SE10      30.21S

......KANSAS AND MISSOURI......

CITY           SKY/WX    TMP DP  RH WIND       PRES   REMARKS
KANSAS CTY INT PTSUNNY   55  28  35 S28G37    29.92F
DOWNTOWN KC    SUNNY     54  29  38 S20G29    29.95F
COLUMBIA       SUNNY     50  30  46 S23G29    30.12S
SEDALIA        SUNNY     53  30  41 S22       30.06F
ST JOSEPH      MOSUNNY   56  27  32 S24G33    29.90F
ST LOUIS       PTSUNNY   48  24  39 S16G26    30.25S
SPIRIT OF STL  MOSUNNY   46  24  42 S13G22    30.23S
KIRKSVILLE     MOSUNNY   51  28  41 S21       30.06S
WICHITA        MOSUNNY   55  28  35 S36G43    29.84R
TOPEKA         SUNNY     55  28  35 S25G39    29.90R
OLATHE         SUNNY     51  30  44 S24G44    29.94F

......TENNESSEE......

CITY           SKY/WX    TMP DP  RH WIND       PRES   REMARKS
MEMPHIS        MOSUNNY   48  24  39 SE7       30.29S
NASHVILLE      MOSUNNY   45  22  40 E10       30.34R

......ARKANSAS.......

CITY           SKY/WX    TMP DP  RH WIND       PRES   REMARKS
FAYETTEVILLE   SUNNY     50  32  50 S16G28    30.12S
FT SMITH       SUNNY     53  32  44 SE13      30.17S
LITTLE ROCK    MOSUNNY   49  30  48 SE10      30.27F

......OKLAHOMA.......

CITY           SKY/WX    TMP DP  RH WIND       PRES   REMARKS
TULSA          CLOUDY    53  31  42 S26G32    30.03S
PONCA CITY     SUNNY     56  25  30 S20G37    29.93S
MCALESTER      PTSUNNY   53  30  41 S15G28    30.10F
OKLAHOMA CITY  PTSUNNY   55  27  34 S33G45    29.95F

......IOWA............

CITY           SKY/WX    TMP DP  RH WIND       PRES   REMARKS
DES MOINES     CLOUDY    53  28  38 S24G32    29.89F
QUAD CITIES    PTSUNNY   44  25  47 S21G26    30.14F

......ILLINOIS........

CITY           SKY/WX    TMP DP  RH WIND       PRES   REMARKS
QUINCY         MOSUNNY   46  25  43 S20G29    30.14S
CHICAGO        CLOUDY    41  22  46 S18       30.29F




USA.gov is the U.S. government's official web portal to all federal, state and local government web resources and services.